C2862 Weather Reports


time (UTC)temp
F
wind
direction
speed
knots
gust
knots
rain 1hr
in
rain 24hr
in
rain mn
in
humidity
%
barometer
mb
20260504050648 48 0 0.0 1.7 0.00 0.00 0.00 64 1010.6
20260504045638 48 0 0.0 1.7 0.00 0.00 0.00 63 1010.6
20260504044701 49 0 0.0 0.0 0.00 0.00 0.00 63 1010.6
20260504043656 49 0 0.0 0.0 0.00 0.00 0.00 63 1010.5
20260504042717 49 0 0.0 0.9 0.00 0.00 0.00 62 1010.4
20260504041726 49 0 0.0 1.7 0.00 0.00 0.00 62 1010.3
20260504040733 49 0 0.9 2.6 0.00 0.00 0.00 62 1010.2
20260504035731 49 115 0.9 3.5 0.00 0.00 0.00 62 1010.1
20260504034734 49 128 0.9 3.5 0.00 0.00 0.00 62 1010.0
20260504033714 48 137 0.0 2.6 0.00 0.00 0.00 63 1010.1
20260504032658 48 146 0.0 0.0 0.00 0.00 0.00 63 1010.1
20260504031640 49 148 0.0 0.0 0.00 0.00 0.00 64 1010.1
20260504030620 49 147 0.0 0.0 0.00 0.00 0.00 64 1010.1
20260504022202 51 0 0.0 0.0 0.00 0.00 0.00 61 1010.0
20260504021158 52 0 0.0 0.0 0.00 0.00 0.00 60 1010.0
20260504020134 53 0 0.0 0.0 0.00 0.00 0.00 58 1010.0
20260504015125 53 0 0.0 0.0 0.00 0.00 0.00 57 1010.0
20260504014130 54 0 0.0 0.0 0.00 0.00 0.00 55 1009.9
20260504013120 55 146 0.0 0.9 0.00 0.00 0.00 53 1009.8
20260504012140 55 146 0.0 0.0 0.00 0.00 0.00 52 1009.7
20260504011119 56 146 0.0 0.0 0.00 0.00 0.00 50 1009.6
20260504010055 56 146 0.0 0.0 0.00 0.00 0.00 49 1009.5
20260504005115 57 144 0.0 0.0 0.00 0.00 0.00 48 1009.3
20260504004123 57 144 0.0 0.9 0.00 0.00 0.00 47 1009.2
20260504003137 57 176 0.0 1.7 0.00 0.00 0.00 46 1009.2
20260504002106 58 186 0.0 4.3 0.00 0.00 0.00 45 1008.9
20260504001031 58 195 0.9 3.5 0.00 0.00 0.00 45 1008.8
20260504000016 59 179 0.9 0.9 0.00 0.00 0.00 44 1008.6
20260503235018 59 195 0.0 7.0 0.00 0.00 0.00 44 1008.5
20260503232811 59 0 0.9 8.7 0.00 0.00 0.00 42 1008.3
20260503231752 59 0 0.9 7.8 0.00 0.00 0.00 42 1008.2
20260503225655 60 0 1.7 11.3 0.00 0.00 0.00 41 1008.1
20260503224627 60 211 2.6 11.3 0.00 0.00 0.00 41 1008.0
20260503223647 60 134 2.6 9.6 0.00 0.00 0.00 40 1008.0
20260503222654 60 263 2.6 13.0 0.00 0.00 0.00 40 1007.9
20260503221701 60 176 1.7 13.0 0.00 0.00 0.00 39 1007.9
20260503215513 61 202 3.5 13.0 0.00 0.00 0.00 39 1008.0
20260503214506 61 277 3.5 13.0 0.00 0.00 0.00 39 1007.9
20260503213510 61 77 2.6 12.2 0.00 0.00 0.00 39 1007.9
20260503212435 61 173 3.5 12.2 0.00 0.00 0.00 39 1007.9
20260503211422 61 0 3.5 20.0 0.00 0.00 0.00 38 1007.8
20260503210354 61 0 5.2 20.0 0.00 0.00 0.00 38 1007.9
20260503205351 62 0 4.3 15.6 0.00 0.00 0.00 37 1007.8
20260503204355 62 0 4.3 13.0 0.00 0.00 0.00 38 1008.0
20260503203356 63 0 3.5 13.0 0.00 0.00 0.00 38 1007.9
20260503202345 63 0 3.5 19.1 0.00 0.00 0.00 38 1007.9
20260503201317 63 0 2.6 19.1 0.00 0.00 0.00 38 1008.0
20260503200256 62 0 3.5 13.9 0.00 0.00 0.00 39 1008.1
20260503195304 63 0 3.5 15.6 0.00 0.00 0.00 38 1008.3
20260503194314 62 0 3.5 15.6 0.00 0.00 0.00 38 1008.3
20260503193323 63 0 2.6 13.9 0.00 0.00 0.00 39 1008.3
20260503191132 62 0 2.6 15.6 0.00 0.00 0.00 40 1008.6
20260503190151 61 0 3.5 20.0 0.00 0.00 0.00 40 1008.6
20260503183945 61 0 5.2 14.8 0.00 0.00 0.00 41 1008.6
20260503182953 61 0 4.3 14.8 0.00 0.00 0.00 41 1008.8
20260503181920 61 267 3.5 11.3 0.00 0.00 0.00 42 1008.9
20260503180924 59 83 3.5 13.9 0.00 0.00 0.00 44 1008.9
20260503174733 57 0 3.5 17.4 0.00 0.00 0.00 46 1009.2
20260503173741 56 355 4.3 17.4 0.00 0.00 0.00 46 1009.4
20260503172718 57 146 4.3 13.0 0.00 0.00 0.00 46 1009.4
20260503171721 56 0 2.6 12.2 0.00 0.00 0.00 49 1009.3
20260503170713 55 0 3.5 13.0 0.00 0.00 0.00 48 1009.6
20260503130842 51 277 3.5 11.3 0.00 0.00 0.00 59 1009.9
20260503110648 44 236 1.7 11.3 0.00 0.00 0.00 67 1009.6
20260503080712 46 187 0.0 3.5 0.00 0.02 0.00 64 1008.5
20260503072507 46 300 0.0 4.3 0.00 0.02 0.00 63 1008.3
20260503070339 48 226 0.0 0.0 0.00 0.02 0.00 62 1008.5